Tracking 35237 objects as of 6-Sep-2026
HD Live streaming from Space Station
objects crossing your sky now

COSMOS 1921 DEB


COSMOS 1921 DEB is no longer on orbit


NORAD ID: 18917
Int'l Code: 1988-011E
Launch date: February 19, 1988
Source: Commonwealth of Independent States (former USSR) (CIS)
Launch site: TYURATAM MISSILE AND SPACE COMPLEX (TTMTR)
Decay date: 1988-06-22

Note: This is SATELLITE DEBRIS
Your satellite tracking list
Your tracking list is empty




NASA's NSSDC Master Catalog

Two Line Element Set (TLE):
1 18917U 88011  E 88173.80951054  .12573027 +17399-4 +58945-3 0  9997
2 18917 069.9920 319.3034 0010100 233.2192 133.0857 16.42220365019491
Source of the keplerian elements: AFSPC